Location: Vaughan
(31.9146°N, 97.1736°W)
Time: 14:58:42
(UTC+00:00)

Cosmos 2098 Rocket - Pass Details

Date: 10 December 2025
Orbit: 349 x 865 km, 82.9° (Epoch: 16 January)

Event Time Altitude Azimuth Distance (km) Brightness Sun altitude
Exits shadow 11:23:06 51° 249° (WSW) 1,073 3.9 -23.8°
Drops below altitude 10° 11:27:56 10° 194° (SSW) 2,411 6.1 -22.8°
Sets 11:30:18 0° 189° (S) 3,287 6.8 -22.3°
